Time,TemperatureF,DewpointF,PressureIn,WindDirection,WindDirectionDegrees,WindSpeedMPH,WindSpeedGustMPH,Humidity,HourlyPrecipIn,Conditions,Clouds,dailyrainin,SoftwareType,DateUTC
2013-09-24 00:01:00,54.5,46.4,30.19,North,-999,-999.0,3.0,74,-99.99,,,0.04,meteohub,2013-09-24 04:01:00,
2013-09-24 00:02:00,54.5,46.4,30.19,North,-999,-999.0,3.0,74,-99.99,,,0.04,meteohub,2013-09-24 04:02:00,
2013-09-24 00:07:00,54.7,46.6,30.19,SSE,158,2.0,3.0,74,-99.99,,,0.04,meteohub,2013-09-24 04:07:00,
2013-09-24 00:12:00,54.7,46.6,30.19,SSE,158,2.0,4.0,74,-99.99,,,0.04,meteohub,2013-09-24 04:12:00,
2013-09-24 00:17:00,54.5,46.4,30.19,SSW,202,4.0,4.0,74,-99.99,,,0.04,meteohub,2013-09-24 04:17:00,
2013-09-24 00:22:00,54.5,46.4,30.22,ESE,112,5.0,6.0,74,-99.99,,,0.04,meteohub,2013-09-24 04:22:00,
2013-09-24 00:27:00,54.7,46.6,30.22,SSE,158,6.0,6.0,74,-99.99,,,0.04,meteohub,2013-09-24 04:27:00,
2013-09-24 00:32:00,54.9,46.8,30.22,East,90,4.0,6.0,74,-99.99,,,0.04,meteohub,2013-09-24 04:32:00,
2013-09-24 00:37:00,54.9,46.8,30.18,SSE,158,3.0,6.0,74,-99.99,,,0.04,meteohub,2013-09-24 04:37:00,
2013-09-24 00:42:00,54.7,46.2,30.19,North,-999,-999.0,6.0,73,-99.99,,,0.04,meteohub,2013-09-24 04:42:00,
2013-09-24 00:47:00,54.5,46.0,30.19,ESE,112,3.0,6.0,73,-99.99,,,0.04,meteohub,2013-09-24 04:47:00,
2013-09-24 00:52:00,54.5,46.0,30.19,SSE,158,4.0,5.0,73,-99.99,,,0.04,meteohub,2013-09-24 04:52:00,
2013-09-24 00:57:00,54.3,45.5,30.19,SSE,158,3.0,5.0,72,-99.99,,,0.04,meteohub,2013-09-24 04:57:00,
2013-09-24 01:02:00,54.3,45.5,30.19,SSE,158,3.0,5.0,72,-99.99,,,0.04,meteohub,2013-09-24 05:02:00,
2013-09-24 01:07:00,54.1,45.3,30.19,ESE,112,4.0,4.0,72,-99.99,,,0.04,meteohub,2013-09-24 05:07:00,
2013-09-24 01:12:00,54.1,45.3,30.19,SSE,158,4.0,6.0,72,-99.99,,,0.04,meteohub,2013-09-24 05:12:00,
2013-09-24 01:17:00,54.1,45.7,30.19,SSE,158,5.0,6.0,73,-99.99,,,0.04,meteohub,2013-09-24 05:17:00,
2013-09-24 01:22:00,54.1,45.7,30.19,SSE,158,4.0,6.0,73,-99.99,,,0.04,meteohub,2013-09-24 05:22:00,
2013-09-24 01:27:00,54.3,45.9,30.19,SSE,158,4.0,6.0,73,-99.99,,,0.04,meteohub,2013-09-24 05:27:00,
2013-09-24 01:32:00,54.5,46.4,30.19,SSE,158,5.0,6.0,74,-99.99,,,0.04,meteohub,2013-09-24 05:32:00,
2013-09-24 01:37:00,54.7,46.9,30.19,SE,135,5.0,8.0,75,-99.99,,,0.04,meteohub,2013-09-24 05:37:00,
2013-09-24 01:42:00,54.9,47.1,30.18,SSE,158,6.0,8.0,75,-99.99,,,0.04,meteohub,2013-09-24 05:42:00,
2013-09-24 01:47:00,54.9,47.1,30.18,ESE,112,5.0,8.0,75,-99.99,,,0.04,meteohub,2013-09-24 05:47:00,
2013-09-24 01:52:00,54.9,47.1,30.18,SSE,158,4.0,7.0,75,-99.99,,,0.04,meteohub,2013-09-24 05:52:00,
2013-09-24 01:59:00,54.9,47.1,30.18,SSE,158,5.0,7.0,75,-99.99,,,0.04,meteohub,2013-09-24 05:59:00,
2013-09-24 02:04:00,54.9,47.1,30.18,SSE,158,4.0,7.0,75,-99.99,,,0.04,meteohub,2013-09-24 06:04:00,
2013-09-24 02:09:00,55.0,47.3,30.18,SE,135,4.0,6.0,75,-99.99,,,0.04,meteohub,2013-09-24 06:09:00,
2013-09-24 02:14:00,55.0,47.3,30.18,SSE,158,4.0,6.0,75,-99.99,,,0.04,meteohub,2013-09-24 06:14:00,
2013-09-24 02:19:00,55.0,47.3,30.18,SSE,158,4.0,6.0,75,-99.99,,,0.04,meteohub,2013-09-24 06:19:00,
2013-09-24 02:24:00,55.0,46.9,30.18,SSE,158,4.0,6.0,74,-99.99,,,0.04,meteohub,2013-09-24 06:24:00,
2013-09-24 02:29:00,55.0,46.6,30.18,SSE,158,4.0,5.0,73,-99.99,,,0.04,meteohub,2013-09-24 06:29:00,
2013-09-24 02:34:00,55.0,46.6,30.18,SSE,158,4.0,6.0,73,-99.99,,,0.04,meteohub,2013-09-24 06:34:00,
2013-09-24 02:39:00,55.0,45.9,30.18,North,-999,-999.0,6.0,71,-99.99,,,0.04,meteohub,2013-09-24 06:39:00,
2013-09-24 02:44:00,55.0,45.9,30.18,SSE,158,5.0,6.0,71,-99.99,,,0.04,meteohub,2013-09-24 06:44:00,
2013-09-24 02:49:00,55.0,45.5,30.18,North,-999,-999.0,5.0,70,-99.99,,,0.04,meteohub,2013-09-24 06:49:00,
2013-09-24 02:54:00,55.0,45.5,30.18,SSE,158,4.0,5.0,70,-99.99,,,0.04,meteohub,2013-09-24 06:54:00,
2013-09-24 02:59:00,55.0,45.1,30.18,ESE,112,4.0,5.0,69,-99.99,,,0.04,meteohub,2013-09-24 06:59:00,
2013-09-24 03:04:00,55.0,44.2,30.18,North,-999,-999.0,4.0,67,-99.99,,,0.04,meteohub,2013-09-24 07:04:00,
2013-09-24 03:09:00,55.0,43.9,30.18,SSE,158,6.0,6.0,66,-99.99,,,0.04,meteohub,2013-09-24 07:09:00,
2013-09-24 03:14:00,55.0,43.2,30.18,North,-999,-999.0,4.0,64,-99.99,,,0.04,meteohub,2013-09-24 07:14:00,
2013-09-24 03:19:00,55.2,42.8,30.15,SSE,158,4.0,6.0,63,-99.99,,,0.04,meteohub,2013-09-24 07:19:00,
2013-09-24 03:24:00,55.2,42.4,30.15,SSE,158,4.0,6.0,62,-99.99,,,0.04,meteohub,2013-09-24 07:24:00,
2013-09-24 03:29:00,55.2,40.6,30.15,SSE,158,6.0,6.0,58,-99.99,,,0.04,meteohub,2013-09-24 07:29:00,
2013-09-24 03:34:00,55.2,40.3,30.15,ESE,112,5.0,6.0,57,-99.99,,,0.04,meteohub,2013-09-24 07:34:00,
2013-09-24 03:39:00,55.0,40.1,30.15,SSE,158,3.0,6.0,57,-99.99,,,0.04,meteohub,2013-09-24 07:39:00,
2013-09-24 03:44:00,54.9,39.6,30.15,ESE,112,3.0,6.0,56,-99.99,,,0.04,meteohub,2013-09-24 07:44:00,
2013-09-24 03:50:00,54.9,39.0,30.15,SSE,158,7.0,7.0,55,-99.99,,,0.04,meteohub,2013-09-24 07:50:00,
2013-09-24 03:55:00,54.9,39.0,30.15,ESE,112,6.0,6.0,55,-99.99,,,0.04,meteohub,2013-09-24 07:55:00,
2013-09-24 04:00:00,54.9,38.5,30.15,SE,135,6.0,7.0,54,-99.99,,,0.04,meteohub,2013-09-24 08:00:00,
2013-09-24 04:05:00,54.7,38.3,30.15,SSE,158,6.0,6.0,54,-99.99,,,0.04,meteohub,2013-09-24 08:05:00,
2013-09-24 04:10:00,54.5,38.3,30.15,SSE,158,6.0,6.0,54,-99.99,,,0.04,meteohub,2013-09-24 08:10:00,
2013-09-24 04:15:00,54.5,38.7,30.15,SSE,158,4.0,6.0,55,-99.99,,,0.04,meteohub,2013-09-24 08:15:00,
2013-09-24 04:20:00,54.3,39.0,30.19,SSE,158,3.0,6.0,56,-99.99,,,0.04,meteohub,2013-09-24 08:20:00,
2013-09-24 04:25:00,54.1,39.2,30.19,North,-999,-999.0,4.0,57,-99.99,,,0.04,meteohub,2013-09-24 08:25:00,
2013-09-24 04:30:00,54.0,39.0,30.19,SSE,158,4.0,5.0,57,-99.99,,,0.04,meteohub,2013-09-24 08:30:00,
2013-09-24 04:35:00,54.0,39.0,30.16,SSE,158,5.0,6.0,57,-99.99,,,0.04,meteohub,2013-09-24 08:35:00,
2013-09-24 04:40:00,54.0,38.7,30.16,ESE,112,4.0,6.0,56,-99.99,,,0.04,meteohub,2013-09-24 08:40:00,
2013-09-24 04:45:00,53.8,38.5,30.16,ESE,112,4.0,6.0,56,-99.99,,,0.04,meteohub,2013-09-24 08:45:00,
2013-09-24 04:50:00,53.8,37.9,30.16,SSE,158,5.0,5.0,55,-99.99,,,0.04,meteohub,2013-09-24 08:50:00,
2013-09-24 04:55:00,53.6,38.3,30.16,SSE,158,3.0,5.0,56,-99.99,,,0.04,meteohub,2013-09-24 08:55:00,
2013-09-24 05:00:00,53.4,38.7,30.16,SSE,158,3.0,5.0,57,-99.99,,,0.04,meteohub,2013-09-24 09:00:00,
2013-09-24 05:05:00,53.4,38.7,30.16,SSE,158,3.0,4.0,57,-99.99,,,0.04,meteohub,2013-09-24 09:05:00,
2013-09-24 05:10:00,53.1,38.3,30.17,SSE,158,2.0,3.0,57,-99.99,,,0.04,meteohub,2013-09-24 09:10:00,
2013-09-24 05:15:00,53.1,38.7,30.17,East,90,0.0,3.0,58,-99.99,,,0.04,meteohub,2013-09-24 09:15:00,
2013-09-24 05:20:00,52.9,38.5,30.17,SSE,158,0.0,4.0,58,-99.99,,,0.04,meteohub,2013-09-24 09:20:00,
2013-09-24 05:26:00,52.5,38.1,30.17,SSE,158,0.0,4.0,58,-99.99,,,0.04,meteohub,2013-09-24 09:26:00,
2013-09-24 05:31:00,52.7,38.8,30.17,North,-999,-999.0,4.0,59,-99.99,,,0.04,meteohub,2013-09-24 09:31:00,
2013-09-24 05:36:00,52.5,38.7,30.20,ENE,68,0.0,0.0,59,-99.99,,,0.04,meteohub,2013-09-24 09:36:00,
2013-09-24 05:41:00,52.3,38.5,30.20,North,-999,-999.0,0.0,59,-99.99,,,0.04,meteohub,2013-09-24 09:41:00,
2013-09-24 05:46:00,52.0,38.5,30.21,North,-999,-999.0,0.0,60,-99.99,,,0.04,meteohub,2013-09-24 09:46:00,
2013-09-24 05:51:00,51.8,38.3,30.21,North,-999,-999.0,-999.0,60,-99.99,,,0.04,meteohub,2013-09-24 09:51:00,
2013-09-24 05:56:00,51.8,38.8,30.21,North,-999,-999.0,-999.0,61,-99.99,,,0.04,meteohub,2013-09-24 09:56:00,
2013-09-24 06:01:00,51.8,39.2,30.21,North,-999,-999.0,-999.0,62,-99.99,,,0.04,meteohub,2013-09-24 10:01:00,
2013-09-24 06:06:00,51.8,39.2,30.21,North,-999,-999.0,-999.0,62,-99.99,,,0.04,meteohub,2013-09-24 10:06:00,
2013-09-24 06:11:00,51.8,39.2,30.21,North,-999,-999.0,-999.0,62,-99.99,,,0.04,meteohub,2013-09-24 10:11:00,
2013-09-24 06:16:00,52.2,39.6,30.20,North,-999,-999.0,-999.0,62,-99.99,,,0.04,meteohub,2013-09-24 10:16:00,
2013-09-24 06:21:00,52.0,39.4,30.21,North,-999,-999.0,-999.0,62,-99.99,,,0.04,meteohub,2013-09-24 10:21:00,
2013-09-24 06:26:00,52.0,39.0,30.21,SSW,202,0.0,0.0,61,-99.99,,,0.04,meteohub,2013-09-24 10:26:00,
2013-09-24 06:31:00,51.8,38.8,30.21,North,-999,-999.0,0.0,61,-99.99,,,0.04,meteohub,2013-09-24 10:31:00,
2013-09-24 06:36:00,51.6,39.0,30.21,North,-999,-999.0,0.0,62,-99.99,,,0.04,meteohub,2013-09-24 10:36:00,
2013-09-24 06:41:00,51.6,39.0,30.21,North,-999,-999.0,-999.0,62,-99.99,,,0.04,meteohub,2013-09-24 10:41:00,
2013-09-24 06:46:00,51.6,39.0,30.21,North,-999,-999.0,-999.0,62,-99.99,,,0.04,meteohub,2013-09-24 10:46:00,
2013-09-24 06:51:00,51.8,39.6,30.21,North,-999,-999.0,-999.0,63,-99.99,,,0.04,meteohub,2013-09-24 10:51:00,
2013-09-24 06:57:00,51.8,39.2,30.21,North,-999,-999.0,-999.0,62,-99.99,,,0.04,meteohub,2013-09-24 10:57:00,
2013-09-24 07:02:00,52.0,39.4,30.21,North,-999,-999.0,-999.0,62,-99.99,,,0.04,meteohub,2013-09-24 11:02:00,
2013-09-24 07:07:00,52.0,39.4,30.21,North,-999,-999.0,-999.0,62,-99.99,,,0.04,meteohub,2013-09-24 11:07:00,
2013-09-24 07:12:00,51.6,39.0,30.21,North,-999,-999.0,-999.0,62,-99.99,,,0.04,meteohub,2013-09-24 11:12:00,
2013-09-24 07:17:00,51.4,38.8,30.21,North,-999,-999.0,-999.0,62,-99.99,,,0.04,meteohub,2013-09-24 11:17:00,
2013-09-24 07:22:00,50.9,38.3,30.22,North,-999,-999.0,-999.0,62,-99.99,,,0.04,meteohub,2013-09-24 11:22:00,
2013-09-24 07:27:00,50.5,37.9,30.22,North,-999,-999.0,-999.0,62,-99.99,,,0.04,meteohub,2013-09-24 11:27:00,
2013-09-24 07:32:00,50.4,37.9,30.22,North,-999,-999.0,-999.0,62,-99.99,,,0.04,meteohub,2013-09-24 11:32:00,
2013-09-24 07:37:00,50.2,37.8,30.22,North,-999,-999.0,-999.0,62,-99.99,,,0.04,meteohub,2013-09-24 11:37:00,
2013-09-24 07:42:00,50.0,37.9,30.22,North,-999,-999.0,-999.0,63,-99.99,,,0.04,meteohub,2013-09-24 11:42:00,
2013-09-24 07:47:00,50.0,38.3,30.22,North,-999,-999.0,-999.0,64,-99.99,,,0.04,meteohub,2013-09-24 11:47:00,
2013-09-24 07:52:00,50.0,38.7,30.22,North,-999,-999.0,-999.0,65,-99.99,,,0.04,meteohub,2013-09-24 11:52:00,
2013-09-24 07:57:00,50.0,38.7,30.22,North,-999,-999.0,-999.0,65,-99.99,,,0.04,meteohub,2013-09-24 11:57:00,
2013-09-24 08:02:00,50.0,39.2,30.22,North,-999,-999.0,-999.0,66,-99.99,,,0.04,meteohub,2013-09-24 12:02:00,
2013-09-24 08:07:00,50.2,39.2,30.22,North,-999,-999.0,-999.0,66,-99.99,,,0.04,meteohub,2013-09-24 12:07:00,
2013-09-24 08:12:00,50.2,39.7,30.22,North,-999,-999.0,-999.0,67,-99.99,,,0.04,meteohub,2013-09-24 12:12:00,
2013-09-24 08:17:00,50.4,39.9,30.22,North,-999,-999.0,-999.0,67,-99.99,,,0.04,meteohub,2013-09-24 12:17:00,
2013-09-24 08:22:00,50.7,40.6,30.22,North,-999,-999.0,-999.0,68,-99.99,,,0.04,meteohub,2013-09-24 12:22:00,
2013-09-24 08:27:00,50.9,41.2,30.22,North,-999,-999.0,-999.0,69,-99.99,,,0.04,meteohub,2013-09-24 12:27:00,
2013-09-24 08:32:00,51.1,41.4,30.21,North,-999,-999.0,-999.0,69,-99.99,,,0.04,meteohub,2013-09-24 12:32:00,
2013-09-24 08:37:00,51.4,42.1,30.21,North,-999,-999.0,-999.0,70,-99.99,,,0.04,meteohub,2013-09-24 12:37:00,
2013-09-24 08:42:00,51.8,42.3,30.21,North,-999,-999.0,-999.0,70,-99.99,,,0.04,meteohub,2013-09-24 12:42:00,
2013-09-24 08:47:00,52.2,42.6,30.20,North,-999,-999.0,-999.0,70,-99.99,,,0.04,meteohub,2013-09-24 12:47:00,
2013-09-24 08:52:00,52.5,43.3,30.20,North,-999,-999.0,-999.0,71,-99.99,,,0.04,meteohub,2013-09-24 12:52:00,
2013-09-24 08:57:00,52.9,43.7,30.20,North,-999,-999.0,-999.0,71,-99.99,,,0.04,meteohub,2013-09-24 12:57:00,
2013-09-24 09:02:00,53.1,43.9,30.20,North,-999,-999.0,-999.0,71,-99.99,,,0.04,meteohub,2013-09-24 13:02:00,
2013-09-24 09:07:00,53.4,44.2,30.23,North,-999,-999.0,-999.0,71,-99.99,,,0.04,meteohub,2013-09-24 13:07:00,
2013-09-24 09:12:00,53.6,44.4,30.23,North,-999,-999.0,-999.0,71,-99.99,,,0.04,meteohub,2013-09-24 13:12:00,
2013-09-24 09:17:00,54.0,44.8,30.22,North,-999,-999.0,-999.0,71,-99.99,,,0.04,meteohub,2013-09-24 13:17:00,
2013-09-24 09:22:00,54.5,45.0,30.19,NW,315,2.0,2.0,70,-99.99,,,0.04,meteohub,2013-09-24 13:22:00,
2013-09-24 09:27:00,55.0,45.5,30.18,North,-999,-999.0,2.0,70,-99.99,,,0.04,meteohub,2013-09-24 13:27:00,
2013-09-24 09:32:00,55.4,45.9,30.18,SSE,158,3.0,4.0,70,-99.99,,,0.04,meteohub,2013-09-24 13:32:00,
2013-09-24 09:37:00,55.9,46.4,30.21,SE,135,3.0,4.0,70,-99.99,,,0.04,meteohub,2013-09-24 13:37:00,
2013-09-24 09:42:00,56.3,46.6,30.21,SSE,158,4.0,4.0,70,-99.99,,,0.04,meteohub,2013-09-24 13:42:00,
2013-09-24 09:47:00,56.5,46.8,30.20,SE,135,3.0,4.0,70,-99.99,,,0.04,meteohub,2013-09-24 13:47:00,
2013-09-24 09:52:00,56.8,47.1,30.17,South,180,3.0,4.0,70,-99.99,,,0.04,meteohub,2013-09-24 13:52:00,
2013-09-24 09:57:00,57.2,47.1,30.17,ESE,112,4.0,4.0,69,-99.99,,,0.04,meteohub,2013-09-24 13:57:00,
2013-09-24 10:02:00,57.4,46.9,30.16,SSE,158,2.0,4.0,68,-99.99,,,0.04,meteohub,2013-09-24 14:02:00,
2013-09-24 10:07:00,57.6,46.8,30.19,ESE,112,4.0,4.0,67,-99.99,,,0.04,meteohub,2013-09-24 14:07:00,
2013-09-24 10:12:00,57.7,46.0,30.19,SSE,158,2.0,4.0,65,-99.99,,,0.04,meteohub,2013-09-24 14:12:00,
2013-09-24 10:17:00,58.3,46.6,30.19,SSE,158,4.0,4.0,65,-99.99,,,0.04,meteohub,2013-09-24 14:17:00,
2013-09-24 10:22:00,58.8,46.8,30.15,SE,135,4.0,6.0,64,-99.99,,,0.04,meteohub,2013-09-24 14:22:00,
2013-09-24 10:27:00,59.2,45.7,30.15,SSE,158,4.0,6.0,61,-99.99,,,0.04,meteohub,2013-09-24 14:27:00,
2013-09-24 10:32:00,59.4,45.5,30.15,SSE,158,4.0,6.0,60,-99.99,,,0.04,meteohub,2013-09-24 14:32:00,
2013-09-24 10:37:00,59.2,44.4,30.18,SSE,158,6.0,6.0,58,-99.99,,,0.04,meteohub,2013-09-24 14:37:00,
2013-09-24 10:42:00,59.5,44.8,30.18,SSE,158,4.0,6.0,58,-99.99,,,0.04,meteohub,2013-09-24 14:42:00,
2013-09-24 10:47:00,59.9,44.6,30.18,SE,135,3.0,6.0,57,-99.99,,,0.04,meteohub,2013-09-24 14:47:00,
2013-09-24 10:52:00,60.4,44.6,30.14,North,-999,-999.0,6.0,56,-99.99,,,0.04,meteohub,2013-09-24 14:52:00,
2013-09-24 10:57:00,60.8,44.6,30.14,SE,135,5.0,6.0,55,-99.99,,,0.04,meteohub,2013-09-24 14:57:00,
2013-09-24 11:02:00,60.8,43.5,30.14,SSE,158,4.0,5.0,53,-99.99,,,0.04,meteohub,2013-09-24 15:02:00,
2013-09-24 11:07:00,61.2,43.9,30.17,ESE,112,1.0,5.0,53,-99.99,,,0.04,meteohub,2013-09-24 15:07:00,
2013-09-24 11:12:00,61.3,43.5,30.17,SSE,158,3.0,5.0,52,-99.99,,,0.04,meteohub,2013-09-24 15:12:00,
2013-09-24 11:17:00,61.3,43.2,30.17,SE,135,3.0,4.0,51,-99.99,,,0.04,meteohub,2013-09-24 15:17:00,
2013-09-24 11:22:00,61.5,42.8,30.17,SSE,158,4.0,4.0,50,-99.99,,,0.04,meteohub,2013-09-24 15:22:00,
2013-09-24 11:27:00,61.7,43.0,30.16,SSE,158,5.0,6.0,50,-99.99,,,0.04,meteohub,2013-09-24 15:27:00,
2013-09-24 11:32:00,61.9,42.6,30.16,SSE,158,4.0,6.0,49,-99.99,,,0.04,meteohub,2013-09-24 15:32:00,
2013-09-24 11:37:00,62.6,43.2,30.16,SSE,158,7.0,7.0,49,-99.99,,,0.04,meteohub,2013-09-24 15:37:00,
2013-09-24 11:42:00,62.8,42.8,30.16,SSE,158,7.0,7.0,48,-99.99,,,0.04,meteohub,2013-09-24 15:42:00,
2013-09-24 11:47:00,63.0,42.4,30.15,SSE,158,6.0,7.0,47,-99.99,,,0.04,meteohub,2013-09-24 15:47:00,
2013-09-24 11:52:00,62.4,41.9,30.12,SSE,158,6.0,8.0,47,-99.99,,,0.04,meteohub,2013-09-24 15:52:00,
2013-09-24 11:57:00,62.2,42.3,30.13,ESE,112,3.0,8.0,48,-99.99,,,0.04,meteohub,2013-09-24 15:57:00,
2013-09-24 12:02:00,62.4,42.4,30.12,SSE,158,6.0,6.0,48,-99.99,,,0.04,meteohub,2013-09-24 16:02:00,
2013-09-24 12:07:00,62.8,42.8,30.16,SE,135,6.0,6.0,48,-99.99,,,0.04,meteohub,2013-09-24 16:07:00,
2013-09-24 12:12:00,63.1,43.2,30.15,SE,135,8.0,8.0,48,-99.99,,,0.04,meteohub,2013-09-24 16:12:00,
2013-09-24 12:17:00,63.9,42.6,30.15,South,180,6.0,8.0,46,-99.99,,,0.04,meteohub,2013-09-24 16:17:00,
2013-09-24 12:22:00,64.4,43.2,30.11,SSE,158,6.0,8.0,46,-99.99,,,0.04,meteohub,2013-09-24 16:22:00,
2013-09-24 12:27:00,64.9,43.2,30.11,SE,135,7.0,8.0,45,-99.99,,,0.04,meteohub,2013-09-24 16:27:00,
2013-09-24 12:32:00,65.7,43.2,30.10,SSE,158,6.0,8.0,44,-99.99,,,0.04,meteohub,2013-09-24 16:32:00,
2013-09-24 12:37:00,66.2,43.0,30.09,North,-999,-999.0,8.0,43,-99.99,,,0.04,meteohub,2013-09-24 16:37:00,
2013-09-24 12:42:00,66.0,43.0,30.10,SSE,158,6.0,8.0,43,-99.99,,,0.04,meteohub,2013-09-24 16:42:00,
2013-09-24 12:47:00,64.9,40.6,30.11,SSE,158,6.0,8.0,41,-99.99,,,0.04,meteohub,2013-09-24 16:47:00,
2013-09-24 12:52:00,65.3,42.3,30.10,ESE,112,6.0,9.0,43,-99.99,,,0.04,meteohub,2013-09-24 16:52:00,
2013-09-24 12:57:00,66.4,42.6,30.09,SSE,158,9.0,9.0,42,-99.99,,,0.04,meteohub,2013-09-24 16:57:00,
2013-09-24 13:02:00,66.6,41.5,30.09,SSE,158,9.0,9.0,40,-99.99,,,0.04,meteohub,2013-09-24 17:02:00,
2013-09-24 13:07:00,66.9,41.9,30.09,East,90,6.0,10.0,40,-99.99,,,0.04,meteohub,2013-09-24 17:07:00,
2013-09-24 13:12:00,67.5,42.3,30.09,SSE,158,8.0,10.0,40,-99.99,,,0.04,meteohub,2013-09-24 17:12:00,
2013-09-24 13:17:00,68.4,42.4,30.08,SSE,158,6.0,10.0,39,-99.99,,,0.04,meteohub,2013-09-24 17:17:00,
2013-09-24 13:22:00,68.5,41.9,30.04,SSE,158,6.0,9.0,38,-99.99,,,0.04,meteohub,2013-09-24 17:22:00,
2013-09-24 13:27:00,67.6,40.5,30.05,SSE,158,4.0,10.0,37,-99.99,,,0.04,meteohub,2013-09-24 17:27:00,
2013-09-24 13:32:00,67.3,40.8,30.05,SSE,158,6.0,10.0,38,-99.99,,,0.04,meteohub,2013-09-24 17:32:00,
2013-09-24 13:37:00,68.4,41.7,30.04,SE,135,7.0,9.0,38,-99.99,,,0.04,meteohub,2013-09-24 17:37:00,
2013-09-24 13:42:00,69.8,41.7,30.04,SSE,158,8.0,9.0,36,-99.99,,,0.04,meteohub,2013-09-24 17:42:00,
2013-09-24 13:47:00,71.4,41.5,30.02,SE,135,8.0,9.0,34,-99.99,,,0.04,meteohub,2013-09-24 17:47:00,
2013-09-24 13:52:00,71.6,40.3,30.02,SSE,158,3.0,10.0,32,-99.99,,,0.04,meteohub,2013-09-24 17:52:00,
2013-09-24 13:57:00,70.9,40.5,30.03,SE,135,6.0,10.0,33,-99.99,,,0.04,meteohub,2013-09-24 17:57:00,
2013-09-24 14:02:00,69.4,39.2,30.04,SSE,158,4.0,10.0,33,-99.99,,,0.04,meteohub,2013-09-24 18:02:00,
2013-09-24 14:07:00,69.3,39.7,30.04,SSE,158,6.0,9.0,34,-99.99,,,0.04,meteohub,2013-09-24 18:07:00,
2013-09-24 14:12:00,70.0,40.3,30.03,SSE,158,4.0,10.0,34,-99.99,,,0.04,meteohub,2013-09-24 18:12:00,
2013-09-24 14:17:00,71.6,41.0,30.02,SSE,158,6.0,10.0,33,-99.99,,,0.04,meteohub,2013-09-24 18:17:00,
2013-09-24 14:22:00,69.4,39.2,30.04,SSE,158,6.0,10.0,33,-99.99,,,0.04,meteohub,2013-09-24 18:22:00,
2013-09-24 14:27:00,68.7,39.2,30.04,SSE,158,6.0,10.0,34,-99.99,,,0.04,meteohub,2013-09-24 18:27:00,
2013-09-24 14:32:00,67.6,38.3,30.05,ESE,112,4.0,9.0,34,-99.99,,,0.04,meteohub,2013-09-24 18:32:00,
2013-09-24 14:37:00,67.6,39.0,30.05,SSE,158,4.0,9.0,35,-99.99,,,0.04,meteohub,2013-09-24 18:37:00,
2013-09-24 14:42:00,68.9,40.1,30.04,SE,135,7.0,8.0,35,-99.99,,,0.04,meteohub,2013-09-24 18:42:00,
2013-09-24 14:47:00,70.2,40.5,30.03,SSE,158,6.0,9.0,34,-99.99,,,0.04,meteohub,2013-09-24 18:47:00,
2013-09-24 14:52:00,69.6,40.1,30.04,SSE,158,7.0,9.0,34,-99.99,,,0.04,meteohub,2013-09-24 18:52:00,
2013-09-24 14:57:00,70.0,39.6,30.03,SSE,158,6.0,9.0,33,-99.99,,,0.04,meteohub,2013-09-24 18:57:00,
2013-09-24 15:02:00,71.1,40.5,30.03,SSE,158,10.0,10.0,33,-99.99,,,0.04,meteohub,2013-09-24 19:02:00,
2013-09-24 15:07:00,71.1,39.7,29.99,SSE,158,6.0,10.0,32,-99.99,,,0.04,meteohub,2013-09-24 19:07:00,
2013-09-24 15:12:00,71.1,39.7,29.99,ESE,112,8.0,10.0,32,-99.99,,,0.04,meteohub,2013-09-24 19:12:00,
2013-09-24 15:16:00,70.2,39.7,30.00,SSE,158,7.0,10.0,33,-99.99,,,0.04,meteohub,2013-09-24 19:16:00,
2013-09-24 15:22:00,69.3,39.0,30.04,SSE,158,7.0,9.0,33,-99.99,,,0.04,meteohub,2013-09-24 19:22:00,
2013-09-24 15:27:00,68.9,39.4,30.04,SSE,158,7.0,8.0,34,-99.99,,,0.04,meteohub,2013-09-24 19:27:00,
2013-09-24 15:32:00,68.2,38.8,30.05,SSE,158,8.0,8.0,34,-99.99,,,0.04,meteohub,2013-09-24 19:32:00,
2013-09-24 15:37:00,67.6,39.0,30.05,SE,135,6.0,9.0,35,-99.99,,,0.04,meteohub,2013-09-24 19:37:00,
2013-09-24 15:42:00,67.3,38.7,30.05,North,-999,-999.0,9.0,35,-99.99,,,0.04,meteohub,2013-09-24 19:42:00,
2013-09-24 15:47:00,66.7,39.0,30.06,SSE,158,5.0,9.0,36,-99.99,,,0.04,meteohub,2013-09-24 19:47:00,
2013-09-24 15:52:00,66.0,39.0,30.06,SSE,158,6.0,8.0,37,-99.99,,,0.04,meteohub,2013-09-24 19:52:00,
2013-09-24 15:57:00,65.3,39.0,30.07,SSE,158,6.0,8.0,38,-99.99,,,0.04,meteohub,2013-09-24 19:57:00,
2013-09-24 16:02:00,64.6,39.0,30.07,South,180,5.0,8.0,39,-99.99,,,0.04,meteohub,2013-09-24 20:02:00,
2013-09-24 16:07:00,64.4,40.3,30.04,SE,135,6.0,11.0,41,-99.99,,,0.04,meteohub,2013-09-24 20:07:00,
2013-09-24 16:12:00,64.4,40.8,30.04,SSE,158,5.0,11.0,42,-99.99,,,0.04,meteohub,2013-09-24 20:12:00,
2013-09-24 16:17:00,64.4,41.4,30.04,SSE,158,6.0,8.0,43,-99.99,,,0.04,meteohub,2013-09-24 20:17:00,
2013-09-24 16:22:00,64.2,41.9,30.04,SSE,158,6.0,8.0,44,-99.99,,,0.04,meteohub,2013-09-24 20:22:00,
2013-09-24 16:27:00,64.2,41.9,30.04,SE,135,7.0,8.0,44,-99.99,,,0.04,meteohub,2013-09-24 20:27:00,
2013-09-24 16:32:00,64.2,41.9,30.04,SSE,158,7.0,7.0,44,-99.99,,,0.04,meteohub,2013-09-24 20:32:00,
2013-09-24 16:37:00,64.0,41.7,30.04,SSE,158,4.0,8.0,44,-99.99,,,0.04,meteohub,2013-09-24 20:37:00,
2013-09-24 16:42:00,64.0,41.7,30.04,SSE,158,7.0,8.0,44,-99.99,,,0.04,meteohub,2013-09-24 20:42:00,
2013-09-24 16:47:00,63.9,41.5,30.05,SSE,158,5.0,8.0,44,-99.99,,,0.04,meteohub,2013-09-24 20:47:00,
2013-09-24 16:52:00,63.7,41.4,30.05,ESE,112,6.0,8.0,44,-99.99,,,0.04,meteohub,2013-09-24 20:52:00,
2013-09-24 16:57:00,63.5,41.7,30.05,SSE,158,8.0,9.0,45,-99.99,,,0.04,meteohub,2013-09-24 20:57:00,
2013-09-24 17:02:00,63.1,41.5,30.05,SE,135,10.0,10.0,45,-99.99,,,0.04,meteohub,2013-09-24 21:02:00,
2013-09-24 17:07:00,63.0,41.4,30.05,SE,135,10.0,11.0,45,-99.99,,,0.04,meteohub,2013-09-24 21:07:00,
2013-09-24 17:12:00,62.8,41.2,30.05,ESE,112,6.0,11.0,45,-99.99,,,0.04,meteohub,2013-09-24 21:12:00,
2013-09-24 17:17:00,62.6,41.0,30.06,SSE,158,5.0,10.0,45,-99.99,,,0.04,meteohub,2013-09-24 21:17:00,
2013-09-24 17:22:00,62.2,41.2,30.06,SSE,158,5.0,9.0,46,-99.99,,,0.04,meteohub,2013-09-24 21:22:00,
2013-09-24 17:27:00,62.1,41.0,30.06,SSE,158,4.0,9.0,46,-99.99,,,0.04,meteohub,2013-09-24 21:27:00,
2013-09-24 17:32:00,61.9,41.5,30.06,SSE,158,6.0,8.0,47,-99.99,,,0.04,meteohub,2013-09-24 21:32:00,
2013-09-24 17:37:00,61.9,41.5,30.06,SSE,158,6.0,8.0,47,-99.99,,,0.04,meteohub,2013-09-24 21:37:00,
2013-09-24 17:42:00,62.1,42.1,30.06,South,180,5.0,7.0,48,-99.99,,,0.04,meteohub,2013-09-24 21:42:00,
2013-09-24 17:47:00,62.2,42.3,30.06,North,-999,-999.0,7.0,48,-99.99,,,0.04,meteohub,2013-09-24 21:47:00,
2013-09-24 17:52:00,62.1,42.1,30.06,SSE,158,6.0,6.0,48,-99.99,,,0.04,meteohub,2013-09-24 21:52:00,
2013-09-24 17:57:00,61.9,42.1,30.06,SSE,158,4.0,6.0,48,-99.99,,,0.04,meteohub,2013-09-24 21:57:00,
2013-09-24 18:02:00,61.7,42.4,30.06,SSE,158,6.0,6.0,49,-99.99,,,0.04,meteohub,2013-09-24 22:02:00,
2013-09-24 18:07:00,61.5,42.3,30.06,ESE,112,5.0,6.0,49,-99.99,,,0.04,meteohub,2013-09-24 22:07:00,
2013-09-24 18:12:00,61.3,42.1,30.06,SSE,158,8.0,8.0,49,-99.99,,,0.04,meteohub,2013-09-24 22:12:00,
2013-09-24 18:17:00,61.3,42.1,30.06,SSE,158,6.0,8.0,49,-99.99,,,0.04,meteohub,2013-09-24 22:17:00,
2013-09-24 18:22:00,61.0,41.7,30.07,SSE,158,4.0,8.0,49,-99.99,,,0.04,meteohub,2013-09-24 22:22:00,
2013-09-24 18:27:00,61.0,41.7,30.07,ESE,112,4.0,8.0,49,-99.99,,,0.04,meteohub,2013-09-24 22:27:00,
2013-09-24 18:32:00,60.8,41.5,30.07,SSE,158,4.0,6.0,49,-99.99,,,0.04,meteohub,2013-09-24 22:32:00,
2013-09-24 18:37:00,60.8,42.1,30.07,SSE,158,4.0,6.0,50,-99.99,,,0.04,meteohub,2013-09-24 22:37:00,
2013-09-24 18:42:00,61.0,42.3,30.07,North,-999,-999.0,6.0,50,-99.99,,,0.04,meteohub,2013-09-24 22:42:00,
2013-09-24 18:46:00,60.8,42.1,30.07,SSE,158,5.0,6.0,50,-99.99,,,0.04,meteohub,2013-09-24 22:46:00,
2013-09-24 18:52:00,60.8,42.1,30.07,SSE,158,5.0,6.0,50,-99.99,,,0.04,meteohub,2013-09-24 22:52:00,
2013-09-24 19:02:00,60.6,41.9,30.07,South,180,6.0,6.0,50,-99.99,,,0.04,meteohub,2013-09-24 23:02:00,
2013-09-24 19:07:00,60.6,41.9,30.07,SSE,158,5.0,6.0,50,-99.99,,,0.04,meteohub,2013-09-24 23:07:00,
2013-09-24 19:12:00,60.4,41.7,30.07,SSE,158,4.0,6.0,50,-99.99,,,0.04,meteohub,2013-09-24 23:12:00,
2013-09-24 19:17:00,60.1,41.9,30.07,SSE,158,5.0,6.0,51,-99.99,,,0.04,meteohub,2013-09-24 23:17:00,
2013-09-24 19:22:00,59.9,42.8,30.08,SSE,158,5.0,6.0,53,-99.99,,,0.04,meteohub,2013-09-24 23:22:00,
2013-09-24 19:27:00,59.7,42.6,30.08,SSE,158,6.0,6.0,53,-99.99,,,0.04,meteohub,2013-09-24 23:27:00,
2013-09-24 19:32:00,59.7,42.6,30.08,SSE,158,5.0,8.0,53,-99.99,,,0.04,meteohub,2013-09-24 23:32:00,
2013-09-24 19:37:00,59.5,41.9,30.08,SSE,158,6.0,8.0,52,-99.99,,,0.04,meteohub,2013-09-24 23:37:00,
2013-09-24 19:42:00,59.4,42.3,30.08,SSE,158,7.0,7.0,53,-99.99,,,0.04,meteohub,2013-09-24 23:42:00,
2013-09-24 19:47:00,59.2,42.1,30.08,SSE,158,5.0,7.0,53,-99.99,,,0.04,meteohub,2013-09-24 23:47:00,
2013-09-24 19:52:00,59.2,42.6,30.08,SSE,158,5.0,7.0,54,-99.99,,,0.04,meteohub,2013-09-24 23:52:00,
2013-09-24 19:57:00,59.2,43.5,30.08,North,-999,-999.0,7.0,56,-99.99,,,0.04,meteohub,2013-09-24 23:57:00,
2013-09-24 20:02:00,59.0,43.3,30.08,SSE,158,4.0,5.0,56,-99.99,,,0.04,meteohub,2013-09-25 00:02:00,
2013-09-24 20:07:00,59.0,43.3,30.08,SSE,158,4.0,5.0,56,-99.99,,,0.04,meteohub,2013-09-25 00:07:00,
2013-09-24 20:12:00,59.0,44.2,30.08,SSE,158,4.0,5.0,58,-99.99,,,0.04,meteohub,2013-09-25 00:12:00,
2013-09-24 20:17:00,59.0,44.2,30.08,SSE,158,4.0,4.0,58,-99.99,,,0.04,meteohub,2013-09-25 00:17:00,
2013-09-24 20:22:00,59.0,44.8,30.08,SSE,158,4.0,6.0,59,-99.99,,,0.04,meteohub,2013-09-25 00:22:00,
2013-09-24 20:27:00,59.0,44.8,30.08,SSE,158,4.0,6.0,59,-99.99,,,0.04,meteohub,2013-09-25 00:27:00,
2013-09-24 20:32:00,59.0,45.1,30.08,SE,135,5.0,5.0,60,-99.99,,,0.04,meteohub,2013-09-25 00:32:00,
2013-09-24 20:37:00,58.8,45.0,30.09,SSE,158,6.0,6.0,60,-99.99,,,0.04,meteohub,2013-09-25 00:37:00,
2013-09-24 20:42:00,58.8,45.0,30.09,SSE,158,4.0,6.0,60,-99.99,,,0.04,meteohub,2013-09-25 00:42:00,
2013-09-24 20:47:00,58.8,45.5,30.09,ESE,112,4.0,6.0,61,-99.99,,,0.04,meteohub,2013-09-25 00:47:00,
2013-09-24 20:53:00,58.8,45.5,30.09,SSE,158,3.0,6.0,61,-99.99,,,0.04,meteohub,2013-09-25 00:53:00,
2013-09-24 20:58:00,58.6,45.7,30.09,SSE,158,3.0,6.0,62,-99.99,,,0.04,meteohub,2013-09-25 00:58:00,
2013-09-24 21:03:00,58.5,45.5,30.09,North,-999,-999.0,4.0,62,-99.99,,,0.04,meteohub,2013-09-25 01:03:00,
2013-09-24 21:08:00,58.5,45.5,30.09,North,-999,-999.0,4.0,62,-99.99,,,0.04,meteohub,2013-09-25 01:08:00,
2013-09-24 21:13:00,58.3,45.3,30.09,North,-999,-999.0,3.0,62,-99.99,,,0.04,meteohub,2013-09-25 01:13:00,
2013-09-24 21:18:00,58.1,45.1,30.09,North,-999,-999.0,-999.0,62,-99.99,,,0.04,meteohub,2013-09-25 01:18:00,
2013-09-24 21:23:00,58.1,45.5,30.09,SSE,158,2.0,-999.0,63,-99.99,,,0.04,meteohub,2013-09-25 01:23:00,
2013-09-24 21:28:00,57.9,45.5,30.09,North,-999,-999.0,2.0,63,-99.99,,,0.04,meteohub,2013-09-25 01:28:00,
2013-09-24 21:33:00,57.9,45.9,30.09,North,-999,-999.0,2.0,64,-99.99,,,0.04,meteohub,2013-09-25 01:33:00,
2013-09-24 21:38:00,57.7,45.7,30.09,North,-999,-999.0,2.0,64,-99.99,,,0.04,meteohub,2013-09-25 01:38:00,
2013-09-24 21:43:00,57.6,45.9,30.09,SSE,158,3.0,-999.0,65,-99.99,,,0.04,meteohub,2013-09-25 01:43:00,
2013-09-24 21:48:00,57.6,45.9,30.09,SSE,158,3.0,3.0,65,-99.99,,,0.04,meteohub,2013-09-25 01:48:00,
2013-09-24 21:53:00,57.4,46.2,30.09,SSE,158,3.0,3.0,66,-99.99,,,0.04,meteohub,2013-09-25 01:53:00,
2013-09-24 21:58:00,57.4,46.2,30.09,South,180,3.0,3.0,66,-99.99,,,0.04,meteohub,2013-09-25 01:58:00,
2013-09-24 22:03:00,57.4,46.2,30.09,SSE,158,2.0,3.0,66,-99.99,,,0.04,meteohub,2013-09-25 02:03:00,
2013-09-24 22:08:00,57.4,46.6,30.09,SSE,158,4.0,4.0,67,-99.99,,,0.04,meteohub,2013-09-25 02:08:00,
2013-09-24 22:13:00,57.4,46.6,30.09,SSE,158,3.0,4.0,67,-99.99,,,0.04,meteohub,2013-09-25 02:13:00,
2013-09-24 22:18:00,57.2,46.4,30.10,SSE,158,4.0,4.0,67,-99.99,,,0.04,meteohub,2013-09-25 02:18:00,
2013-09-24 22:23:00,57.2,46.8,30.10,North,-999,-999.0,4.0,68,-99.99,,,0.04,meteohub,2013-09-25 02:23:00,
2013-09-24 22:28:00,57.2,47.1,30.10,North,-999,-999.0,4.0,69,-99.99,,,0.04,meteohub,2013-09-25 02:28:00,
2013-09-24 22:33:00,57.0,46.9,30.10,SSE,158,4.0,4.0,69,-99.99,,,0.04,meteohub,2013-09-25 02:33:00,
2013-09-24 22:39:00,57.0,47.3,30.10,SSE,158,5.0,5.0,70,-99.99,,,0.04,meteohub,2013-09-25 02:39:00,
2013-09-24 22:44:00,57.0,47.3,30.10,SSE,158,4.0,4.0,70,-99.99,,,0.04,meteohub,2013-09-25 02:44:00,
2013-09-24 22:49:00,56.8,47.1,30.10,SSE,158,3.0,5.0,70,-99.99,,,0.04,meteohub,2013-09-25 02:49:00,
2013-09-24 22:54:00,56.8,47.1,30.10,North,-999,-999.0,5.0,70,-99.99,,,0.04,meteohub,2013-09-25 02:54:00,
2013-09-24 22:59:00,56.7,46.9,30.10,SSE,158,2.0,4.0,70,-99.99,,,0.04,meteohub,2013-09-25 02:59:00,
2013-09-24 23:04:00,56.7,46.9,30.10,SSE,158,0.0,4.0,70,-99.99,,,0.04,meteohub,2013-09-25 03:04:00,
2013-09-24 23:09:00,56.5,46.8,30.10,SSE,158,0.0,2.0,70,-99.99,,,0.04,meteohub,2013-09-25 03:09:00,
2013-09-24 23:15:00,56.3,46.6,30.10,SSE,158,0.0,2.0,70,-99.99,,,0.04,meteohub,2013-09-25 03:15:00,
2013-09-24 23:20:00,55.9,45.9,30.11,WSW,248,0.0,1.0,69,-99.99,,,0.04,meteohub,2013-09-25 03:20:00,
2013-09-24 23:25:00,55.8,45.7,30.11,South,180,0.0,0.0,69,-99.99,,,0.04,meteohub,2013-09-25 03:25:00,
2013-09-24 23:30:00,55.8,45.7,30.11,SSE,158,0.0,0.0,69,-99.99,,,0.04,meteohub,2013-09-25 03:30:00,
2013-09-24 23:35:00,55.8,46.2,30.07,SSE,158,2.0,2.0,70,-99.99,,,0.04,meteohub,2013-09-25 03:35:00,
2013-09-24 23:40:00,55.6,46.0,30.08,SSE,158,3.0,3.0,70,-99.99,,,0.04,meteohub,2013-09-25 03:40:00,
2013-09-24 23:45:00,55.6,46.0,30.08,SSE,158,3.0,3.0,70,-99.99,,,0.04,meteohub,2013-09-25 03:45:00,
2013-09-24 23:50:00,55.8,46.2,30.07,SSE,158,3.0,4.0,70,-99.99,,,0.04,meteohub,2013-09-25 03:50:00,
2013-09-24 23:55:00,55.9,46.8,30.07,SSE,158,3.0,4.0,71,-99.99,,,0.04,meteohub,2013-09-25 03:55:00,